Regional Weather Roundup
Issued by NWS

Home | Current Version | Previous Version | Text Only | Print | Product List | Glossary On
Versions: 1 2 3 4 5 6 7 8 9 10 11 12 13 14 15 16 17 18 19 20 21 22 23 24 25 26 27 28 29 30 31 32 33 34 35 36 37 38 39 40 41 42 43 44 45 46 47
000
ASUS45 KTFX 282210
RWRMT
MONTANA REGIONAL WEATHER ROUNDUP
NATIONAL WEATHER SERVICE GREAT FALLS MT
400 PM MDT TUE JUL 28 2015

NOTE: "FAIR" INDICATES FEW OR NO CLOUDS BELOW 12000 FEET WITH NO
SIGNIFICANT WEATHER AND/OR OBSTRUCTIONS TO VISIBILITY.

MTZ001>007-043-282300-
WEST OF THE DIVIDE

CITY           SKY/WX    TMP DP  RH WIND       PRES   REMARKS
KALISPELL      CLOUDY    73  32  22 SW6       30.15F
MISSOULA       PTSUNNY   73  38  27 VRB6      30.21S
BUTTE          SUNNY     63  33  32 SW10      30.29S
MULLAN PASS    MOSUNNY   58  36  43 VRB7      30.33S
DEER LODGE       N/A     66  37  34 S3        30.28S
EUREKA           N/A     72  39  30 SE6       30.15F
HAMILTON         N/A     70  39  32 N12       30.23F
LIBBY            N/A     72  41  33 CALM      30.18S
$$

MTZ008-052>055-282300-
SOUTHWEST MONTANA

CITY           SKY/WX    TMP DP  RH WIND       PRES   REMARKS
BOZEMAN        PTSUNNY   67  35  30 W10       30.24F
DILLON         SUNNY     65  35  33 CALM      30.29S
W YELLOWSTONE  CLOUDY    55  36  47 NW7       30.37S
TWIN BRIDGES     N/A     65  36  34 S3        30.24F
$$

MTZ009-010-012-014-046-048-049-054-282300-
EAST SLOPES AND CENTRAL MONTANA

CITY           SKY/WX    TMP DP  RH WIND       PRES   REMARKS
CUT BANK       MOSUNNY   73  34  23 W16G28    30.10S
GREAT FALLS    MOSUNNY   73  33  23 W14G24    30.11S
MALMSTROM AFB  MOSUNNY   71  36  27 W18G24    30.11S
HELENA         MOSUNNY   73  38  27 W17G29    30.19R
CONRAD           N/A     72  40  31 W14       30.13R
$$

MTZ011-013-016-021-045-047-050-051-282300-
NORTH CENTRAL MONTANA

CITY           SKY/WX    TMP DP  RH WIND       PRES   REMARKS
HAVRE          PTSUNNY   75  41  29 NW20G31   30.01R
LEWISTOWN      PTSUNNY   69  38  32 NW20G30   30.13R
CHINOOK          N/A     75  41  29 W24G32    29.97S
FORT BENTON      N/A     73  36  25 NW14G21   30.07S
$$

MTZ017>020-022>027-061-062-282300-
NORTHEAST MONTANA

CITY           SKY/WX    TMP DP  RH WIND       PRES   REMARKS
GLASGOW        PTSUNNY   65  50  58 W29G37    29.87R
JORDAN           N/A     72  44  36 NW26G39   29.97R
SIDNEY         CLOUDY    59  52  77 W24G37    29.79R
WOLF POINT     LGT RAIN  63  52  67 W31G53    29.85R
PLENTYWOOD       N/A     55  52  88 W49G64    29.56R
POPLAR           N/A     61  54  77 W35G43    29.81R
SCOBEY           N/A     57  48  72 W37       29.76R
$$

MTZ028>42-056>058-282300-
SOUTHCENTRAL AND SOUTHEAST MONTANA

CITY           SKY/WX    TMP DP  RH WIND       PRES   REMARKS
BILLINGS       MOSUNNY   74  34  23 NW21G31   30.14S
LIVINGSTON     MOSUNNY   70  36  28 W21G33    30.22F
MILES CITY     PTSUNNY   73  42  32 W40G52    29.98F
EKALAKA          N/A     64  42  44 W25       30.01R
FORSYTH          N/A     73  39  29 W21G33    30.03R
LAUREL           N/A     72  33  23 W12       30.13S
ROUNDUP          N/A     72  34  24 W18       30.01S
$$

REGIONAL REPORTS...DAKOTAS

CITY           SKY/WX    TMP DP  RH WIND       PRES   REMARKS
WILLISTON      LGT RAIN  59  54  83 W35G49    29.63R
MINOT          LGT RAIN  66  49  54 SW35G52   29.51F
DICKINSON      CLOUDY    66  46  48 W46G66    29.82R
BEACH          CLOUDY    63  45  51 W43G61    29.91R
CROSBY         CLOUDY    57  57 100 W35G53    29.39R
BISMARCK       PTSUNNY   70  47  43 W29G52    29.78R
GRAND FORKS    PTSUNNY   75  54  47 SW20G29   29.63S
FARGO          MOSUNNY   80  53  39 SW25G33   29.73R
BUFFALO SD       N/A     67  45  45 NW38G48   29.95R
RAPID CITY     PTSUNNY   77  42  28 NW18      30.05R
$$

REGIONAL REPORTS...WYOMING/IDAHO/WASHINGTON

CITY           SKY/WX    TMP DP  RH WIND       PRES   REMARKS
GILLETTE       MOSUNNY   71  35  26 NW21G33   30.14R
SHERIDAN       SUNNY     74  37  26 N20G32    30.13R
BUFFALO WY     SUNNY     68  36  30 N15G22    30.18S
CODY           SUNNY     68  30  24 W13G24    30.21F
YELLOWSTONE LA   N/A     51  29  42 VRB6      30.42S
IDAHO FALLS    MOSUNNY   69  33  26 CALM      30.31F
SALMON         MOSUNNY   64  41  42 CALM      30.27F
BOISE          MOSUNNY   77  34  21 W6        30.21F
SPOKANE        PTSUNNY   75  36  24 SW7       30.20F
$$

REGIONAL REPORTS...ALBERTA

CITY           SKY/WX    TMP DP  RH WIND       PRES   REMARKS
EDMONTON       PTSUNNY   72  46  40 NW15      29.92S
CALGARY        PTSUNNY   72  41  33 VRB8      30.03R
LETHBRIDGE     MOSUNNY   75  36  23 W18G28    30.04S
MEDICINE HAT   CLOUDY    77  37  24 W23G31    29.96R
CARDSTON         N/A     68  37  32 W6          N/A
MILK RIVER       N/A     75  39  27 NW17G24     N/A
ONEFOUR          N/A     72  39  30 NW25G32     N/A
$$

REGIONAL REPORTS...SASKATCHEWAN

CITY           SKY/WX    TMP DP  RH WIND       PRES   REMARKS
SWIFT CURRENT  MOSUNNY   66  50  55 NW28G39   29.82R
REGINA         LGT RAIN  57  55  94 NW37G48   29.48R
SASKATOON      LGT RAIN  63  59  88 NW6       29.74R
CYPRESS HILLS    N/A     63  37  39 NW10G23     N/A
VAL MARIE        N/A     64  48  55 NW22        N/A
ROCKGLEN         N/A     54  52  94 NW20G29     N/A
$$


USA.gov is the U.S. government's official web portal to all federal, state and local government web resources and services.